| time (UTC) | temp F | wind direction | speed knots | gust knots | rain 1hr in | rain 24hr in | rain mn in | humidity % | barometer mb |
| 20260904081522 | 78 | 200 | 0.0 | 2.6 | 0.00 | 0.04 | 0.00 | 83 | 1013.8 |
| 20260904081010 | 78 | 193 | 0.0 | 2.6 | 0.00 | 0.04 | 0.00 | 83 | 1013.8 |
| 20260904080511 | 78 | 191 | 0.0 | 2.6 | 0.00 | 0.04 | 0.00 | 83 | 1013.9 |
| 20260904080038 | 79 | 191 | 0.0 | 0.9 | 0.00 | 0.04 | 0.00 | 83 | 1014.0 |
| 20260904075503 | 79 | 191 | 0.0 | 0.9 | 0.00 | 0.04 | 0.00 | 83 | 1013.9 |
| 20260904075004 | 79 | 192 | 0.0 | 0.9 | 0.00 | 0.04 | 0.00 | 83 | 1013.8 |
| 20260904074514 | 79 | 191 | 0.0 | 1.7 | 0.00 | 0.04 | 0.00 | 83 | 1013.8 |
| 20260904074003 | 79 | 191 | 0.0 | 1.7 | 0.00 | 0.04 | 0.00 | 83 | 1013.7 |
| 20260904073508 | 79 | 192 | 0.0 | 2.6 | 0.00 | 0.04 | 0.00 | 82 | 1013.8 |
| 20260904073009 | 79 | 192 | 0.0 | 3.5 | 0.00 | 0.04 | 0.00 | 82 | 1013.7 |
| 20260904072507 | 79 | 193 | 0.0 | 5.2 | 0.00 | 0.04 | 0.00 | 82 | 1013.8 |
| 20260904072006 | 79 | 169 | 0.9 | 5.2 | 0.00 | 0.04 | 0.00 | 82 | 1013.8 |
| 20260904071515 | 79 | 203 | 0.0 | 5.2 | 0.00 | 0.04 | 0.00 | 82 | 1013.9 |
| 20260904071008 | 79 | 210 | 0.0 | 2.6 | 0.00 | 0.04 | 0.00 | 81 | 1013.9 |
| 20260904070511 | 79 | 206 | 0.0 | 4.3 | 0.00 | 0.04 | 0.00 | 81 | 1014.0 |
| 20260904070024 | 80 | 206 | 0.0 | 4.3 | 0.00 | 0.04 | 0.00 | 81 | 1014.1 |
| 20260904065512 | 80 | 218 | 0.0 | 5.2 | 0.00 | 0.04 | 0.00 | 81 | 1014.1 |
| 20260904065012 | 80 | 211 | 0.0 | 5.2 | 0.00 | 0.04 | 0.00 | 81 | 1014.0 |
| 20260904064527 | 80 | 234 | 0.0 | 3.5 | 0.00 | 0.04 | 0.00 | 80 | 1014.0 |
| 20260904064003 | 80 | 187 | 0.0 | 3.5 | 0.00 | 0.04 | 0.00 | 80 | 1014.0 |
| 20260904063504 | 80 | 209 | 0.0 | 5.2 | 0.00 | 0.04 | 0.00 | 80 | 1014.0 |
| 20260904063014 | 80 | 173 | 0.9 | 5.2 | 0.00 | 0.04 | 0.00 | 80 | 1014.1 |
| 20260904062504 | 80 | 191 | 0.9 | 3.5 | 0.00 | 0.04 | 0.00 | 80 | 1014.1 |
| 20260904062003 | 80 | 199 | 0.0 | 1.7 | 0.00 | 0.04 | 0.00 | 79 | 1014.1 |
| 20260904061520 | 80 | 202 | 0.0 | 5.2 | 0.00 | 0.04 | 0.00 | 79 | 1014.0 |
| 20260904061008 | 80 | 200 | 0.0 | 5.2 | 0.00 | 0.04 | 0.00 | 79 | 1014.0 |
| 20260904060509 | 80 | 200 | 0.0 | 2.6 | 0.00 | 0.04 | 0.00 | 78 | 1014.0 |
| 20260904060020 | 80 | 207 | 0.0 | 5.2 | 0.00 | 0.04 | 0.00 | 78 | 1014.0 |
| 20260904055508 | 80 | 214 | 0.0 | 5.2 | 0.00 | 0.04 | 0.00 | 78 | 1014.0 |
| 20260904055011 | 80 | 202 | 0.0 | 2.6 | 0.00 | 0.04 | 0.00 | 78 | 1014.0 |
| 20260904054524 | 80 | 206 | 0.0 | 2.6 | 0.00 | 0.04 | 0.00 | 77 | 1014.1 |
| 20260904054013 | 80 | 205 | 0.0 | 4.3 | 0.00 | 0.04 | 0.00 | 77 | 1014.0 |
| 20260904053513 | 80 | 209 | 0.0 | 5.2 | 0.00 | 0.04 | 0.00 | 77 | 1014.0 |
| 20260904053029 | 80 | 189 | 0.0 | 5.2 | 0.00 | 0.04 | 0.00 | 77 | 1013.9 |
| 20260904052504 | 80 | 185 | 0.9 | 5.2 | 0.00 | 0.04 | 0.00 | 77 | 1013.9 |
| 20260904052004 | 80 | 204 | 0.0 | 5.2 | 0.00 | 0.04 | 0.00 | 77 | 1013.9 |
| 20260904051525 | 81 | 182 | 0.0 | 4.3 | 0.00 | 0.04 | 0.00 | 77 | 1013.9 |
| 20260904051004 | 81 | 198 | 0.0 | 5.2 | 0.00 | 0.04 | 0.00 | 76 | 1013.9 |
| 20260904050505 | 81 | 169 | 0.0 | 6.1 | 0.00 | 0.04 | 0.00 | 75 | 1013.9 |
| 20260904050015 | 81 | 174 | 0.0 | 6.1 | 0.00 | 0.04 | 0.00 | 75 | 1013.9 |
| 20260904045509 | 81 | 211 | 0.9 | 6.1 | 0.00 | 0.04 | 0.04 | 74 | 1014.0 |
| 20260904045011 | 81 | 189 | 1.7 | 6.1 | 0.00 | 0.04 | 0.04 | 74 | 1014.0 |
| 20260904044534 | 81 | 138 | 0.0 | 7.0 | 0.00 | 0.04 | 0.04 | 73 | 1014.1 |
| 20260904044011 | 81 | 221 | 0.9 | 7.0 | 0.00 | 0.04 | 0.04 | 73 | 1014.0 |
| 20260904043515 | 81 | 140 | 1.7 | 7.0 | 0.00 | 0.04 | 0.04 | 73 | 1014.0 |
| 20260904043027 | 81 | 211 | 0.0 | 7.0 | 0.00 | 0.04 | 0.04 | 73 | 1014.1 |
| 20260904042513 | 81 | 211 | 0.0 | 7.0 | 0.00 | 0.04 | 0.04 | 73 | 1014.2 |
| 20260904042019 | 81 | 159 | 0.0 | 7.0 | 0.00 | 0.04 | 0.04 | 73 | 1014.2 |
| 20260904041537 | 81 | 188 | 0.9 | 4.3 | 0.00 | 0.04 | 0.04 | 73 | 1014.2 |
| 20260904041003 | 81 | 163 | 0.0 | 2.6 | 0.00 | 0.04 | 0.04 | 72 | 1014.2 |
| 20260904040505 | 81 | 213 | 0.0 | 2.6 | 0.00 | 0.04 | 0.04 | 72 | 1014.1 |
| 20260904040012 | 82 | 194 | 0.0 | 3.5 | 0.00 | 0.04 | 0.04 | 72 | 1014.1 |
| 20260904035504 | 82 | 166 | 0.0 | 5.2 | 0.00 | 0.04 | 0.04 | 72 | 1014.1 |
| 20260904035008 | 82 | 148 | 0.9 | 5.2 | 0.00 | 0.04 | 0.04 | 72 | 1014.1 |
| 20260904034520 | 82 | 198 | 0.0 | 4.3 | 0.00 | 0.04 | 0.04 | 72 | 1014.1 |
| 20260904034010 | 82 | 190 | 0.0 | 7.0 | 0.00 | 0.04 | 0.04 | 72 | 1014.0 |
| 20260904033512 | 82 | 199 | 0.9 | 7.0 | 0.00 | 0.04 | 0.04 | 72 | 1014.2 |
| 20260904033025 | 82 | 178 | 0.9 | 7.0 | 0.00 | 0.04 | 0.04 | 72 | 1014.2 |
| 20260904032511 | 82 | 186 | 0.9 | 7.8 | 0.00 | 0.04 | 0.04 | 72 | 1014.3 |
| 20260904032014 | 82 | 191 | 1.7 | 7.8 | 0.00 | 0.04 | 0.04 | 73 | 1014.3 |
| 20260904031529 | 82 | 211 | 1.7 | 7.8 | 0.00 | 0.04 | 0.04 | 72 | 1014.2 |
| 20260904031017 | 82 | 179 | 2.6 | 8.7 | 0.00 | 0.04 | 0.04 | 72 | 1014.1 |
| 20260904030516 | 83 | 153 | 3.5 | 8.7 | 0.00 | 0.04 | 0.04 | 73 | 1014.1 |
| 20260904030008 | 83 | 175 | 2.6 | 7.0 | 0.00 | 0.04 | 0.04 | 73 | 1014.0 |
| 20260904025504 | 83 | 190 | 1.7 | 6.1 | 0.00 | 0.04 | 0.04 | 74 | 1013.9 |
| 20260904025004 | 83 | 194 | 0.9 | 6.1 | 0.00 | 0.04 | 0.04 | 74 | 1013.9 |
| 20260904024516 | 83 | 177 | 0.9 | 6.1 | 0.00 | 0.04 | 0.04 | 74 | 1013.9 |
| 20260904024008 | 83 | 207 | 1.7 | 5.2 | 0.00 | 0.04 | 0.04 | 73 | 1013.8 |
| 20260904023510 | 83 | 177 | 0.0 | 6.1 | 0.00 | 0.04 | 0.04 | 73 | 1013.7 |
| 20260904023019 | 83 | 196 | 1.7 | 7.8 | 0.00 | 0.04 | 0.04 | 73 | 1013.6 |
| 20260904022511 | 84 | 192 | 0.9 | 9.6 | 0.00 | 0.04 | 0.04 | 72 | 1013.4 |
| 20260904022012 | 84 | 186 | 1.7 | 9.6 | 0.00 | 0.04 | 0.04 | 72 | 1013.2 |
| 20260904021524 | 84 | 175 | 1.7 | 8.7 | 0.00 | 0.04 | 0.04 | 72 | 1013.2 |
| 20260904021012 | 84 | 165 | 1.7 | 10.4 | 0.00 | 0.04 | 0.04 | 72 | 1013.1 |
| 20260904020514 | 84 | 191 | 3.5 | 10.4 | 0.00 | 0.04 | 0.04 | 72 | 1013.0 |
| 20260904020040 | 84 | 193 | 1.7 | 7.8 | 0.00 | 0.04 | 0.04 | 72 | 1012.9 |
| 20260904015514 | 84 | 178 | 1.7 | 7.8 | 0.00 | 0.04 | 0.04 | 72 | 1012.9 |
| 20260904015018 | 84 | 188 | 2.6 | 7.0 | 0.00 | 0.04 | 0.04 | 72 | 1012.8 |
| 20260904014510 | 85 | 216 | 2.6 | 7.0 | 0.00 | 0.04 | 0.04 | 72 | 1012.8 |
| 20260904014006 | 85 | 184 | 0.9 | 7.8 | 0.00 | 0.04 | 0.04 | 73 | 1012.7 |
| 20260904013505 | 85 | 190 | 0.9 | 7.8 | 0.00 | 0.04 | 0.04 | 73 | 1012.7 |
| 20260904013018 | 85 | 196 | 2.6 | 10.4 | 0.00 | 0.04 | 0.04 | 73 | 1012.6 |
| 20260904012514 | 85 | 169 | 1.7 | 10.4 | 0.00 | 0.04 | 0.04 | 73 | 1012.6 |
| 20260904012010 | 85 | 170 | 1.7 | 7.8 | 0.00 | 0.04 | 0.04 | 73 | 1012.5 |
| 20260904011528 | 85 | 142 | 0.9 | 5.2 | 0.00 | 0.04 | 0.04 | 73 | 1012.4 |
| 20260904011010 | 86 | 193 | 0.9 | 7.8 | 0.00 | 0.04 | 0.04 | 72 | 1012.3 |
| 20260904010513 | 86 | 159 | 0.0 | 11.3 | 0.00 | 0.04 | 0.04 | 72 | 1012.4 |
| 20260904010030 | 86 | 124 | 3.5 | 11.3 | 0.00 | 0.04 | 0.04 | 71 | 1012.3 |
| 20260904005515 | 86 | 224 | 2.6 | 9.6 | 0.00 | 0.04 | 0.04 | 71 | 1012.4 |
| 20260904005012 | 86 | 190 | 0.9 | 13.0 | 0.00 | 0.04 | 0.04 | 71 | 1012.5 |
| 20260904004530 | 86 | 157 | 4.3 | 13.0 | 0.00 | 0.04 | 0.04 | 70 | 1012.4 |
| 20260904004014 | 87 | 183 | 3.5 | 9.6 | 0.00 | 0.04 | 0.04 | 70 | 1012.5 |
| 20260904003516 | 87 | 160 | 3.5 | 10.4 | 0.00 | 0.04 | 0.04 | 69 | 1012.4 |
| 20260904003013 | 87 | 148 | 2.6 | 10.4 | 0.00 | 0.04 | 0.04 | 68 | 1012.4 |
| 20260904002506 | 88 | 109 | 2.6 | 7.8 | 0.00 | 0.04 | 0.04 | 68 | 1012.3 |
| 20260904002006 | 88 | 123 | 0.9 | 10.4 | 0.00 | 0.04 | 0.04 | 67 | 1012.3 |
| 20260904001519 | 88 | 143 | 3.5 | 12.2 | 0.00 | 0.04 | 0.04 | 66 | 1012.3 |
| 20260904001008 | 88 | 153 | 3.5 | 12.2 | 0.00 | 0.04 | 0.04 | 65 | 1012.3 |
| 20260904000511 | 89 | 170 | 3.5 | 10.4 | 0.00 | 0.04 | 0.04 | 64 | 1012.3 |
| 20260904000028 | 89 | 178 | 2.6 | 11.3 | 0.00 | 0.04 | 0.04 | 63 | 1012.3 |
| 20260903235509 | 89 | 130 | 3.5 | 11.3 | 0.00 | 0.04 | 0.04 | 62 | 1012.3 |
| 20260903235018 | 89 | 126 | 3.5 | 8.7 | 0.00 | 0.04 | 0.04 | 62 | 1012.2 |
| 20260903234528 | 89 | 152 | 2.6 | 13.0 | 0.00 | 0.04 | 0.04 | 63 | 1012.3 |
| 20260903234015 | 89 | 138 | 3.5 | 13.0 | 0.00 | 0.04 | 0.04 | 63 | 1012.3 |
| 20260903233514 | 89 | 155 | 4.3 | 10.4 | 0.00 | 0.04 | 0.04 | 63 | 1012.2 |
| 20260903233034 | 90 | 144 | 3.5 | 10.4 | 0.00 | 0.04 | 0.04 | 64 | 1012.2 |
| 20260903232505 | 90 | 96 | 0.0 | 11.3 | 0.00 | 0.04 | 0.04 | 65 | 1012.1 |
| 20260903232007 | 90 | 151 | 4.3 | 13.0 | 0.00 | 0.04 | 0.04 | 64 | 1012.0 |
| 20260903231516 | 90 | 142 | 4.3 | 13.0 | 0.00 | 0.04 | 0.04 | 63 | 1012.1 |
| 20260903231006 | 90 | 159 | 2.6 | 8.7 | 0.00 | 0.04 | 0.04 | 63 | 1012.1 |
| 20260903230511 | 90 | 169 | 4.3 | 11.3 | 0.00 | 0.04 | 0.04 | 63 | 1012.0 |
| 20260903230033 | 90 | 173 | 4.3 | 11.3 | 0.00 | 0.04 | 0.04 | 63 | 1012.1 |
| 20260903225512 | 91 | 169 | 1.7 | 9.6 | 0.00 | 0.04 | 0.04 | 63 | 1012.1 |
| 20260903225011 | 91 | 149 | 5.2 | 9.6 | 0.00 | 0.04 | 0.04 | 62 | 1012.0 |
| 20260903224527 | 91 | 165 | 3.5 | 9.6 | 0.00 | 0.04 | 0.04 | 62 | 1012.0 |
| 20260903224012 | 91 | 146 | 4.3 | 11.3 | 0.00 | 0.04 | 0.04 | 62 | 1012.0 |
| 20260903223516 | 91 | 136 | 4.3 | 11.3 | 0.00 | 0.04 | 0.04 | 62 | 1012.0 |
| 20260903223013 | 91 | 146 | 4.3 | 10.4 | 0.00 | 0.04 | 0.04 | 62 | 1011.9 |
| 20260903222503 | 91 | 179 | 0.9 | 9.6 | 0.00 | 0.04 | 0.04 | 62 | 1012.0 |
| 20260903222004 | 91 | 148 | 1.7 | 9.6 | 0.00 | 0.04 | 0.04 | 62 | 1011.9 |
| 20260903221510 | 91 | 162 | 3.5 | 11.3 | 0.00 | 0.04 | 0.04 | 62 | 1012.0 |
| 20260903221004 | 91 | 150 | 3.5 | 11.3 | 0.00 | 0.04 | 0.04 | 61 | 1012.0 |
| 20260903220506 | 91 | 199 | 3.5 | 10.4 | 0.00 | 0.04 | 0.04 | 61 | 1012.0 |
| 20260903220030 | 92 | 174 | 4.3 | 10.4 | 0.00 | 0.04 | 0.04 | 61 | 1012.1 |
| 20260903215508 | 92 | 158 | 2.6 | 9.6 | 0.00 | 0.04 | 0.04 | 61 | 1012.2 |
| 20260903215012 | 91 | 161 | 0.9 | 9.6 | 0.00 | 0.04 | 0.04 | 63 | 1012.2 |
| 20260903214527 | 92 | 135 | 4.3 | 9.6 | 0.00 | 0.04 | 0.04 | 63 | 1012.2 |
| 20260903214012 | 92 | 126 | 1.7 | 9.6 | 0.00 | 0.04 | 0.04 | 62 | 1012.3 |
| 20260903213512 | 92 | 145 | 2.6 | 9.6 | 0.00 | 0.04 | 0.04 | 61 | 1012.4 |
| 20260903213030 | 91 | 157 | 2.6 | 10.4 | 0.00 | 0.04 | 0.04 | 61 | 1012.4 |
| 20260903212515 | 91 | 173 | 3.5 | 13.0 | 0.00 | 0.04 | 0.04 | 61 | 1012.4 |
| 20260903212019 | 92 | 132 | 5.2 | 13.0 | 0.00 | 0.04 | 0.04 | 61 | 1012.4 |
| 20260903211510 | 92 | 111 | 4.3 | 11.3 | 0.00 | 0.04 | 0.04 | 60 | 1012.5 |
| 20260903211006 | 92 | 153 | 3.5 | 10.4 | 0.00 | 0.04 | 0.04 | 60 | 1012.5 |
| 20260903210507 | 92 | 186 | 2.6 | 10.4 | 0.00 | 0.04 | 0.04 | 61 | 1012.5 |
| 20260903210017 | 92 | 147 | 2.6 | 9.6 | 0.00 | 0.04 | 0.04 | 62 | 1012.6 |
| 20260903205507 | 91 | 232 | 2.6 | 11.3 | 0.00 | 0.04 | 0.04 | 61 | 1012.7 |
| 20260903205010 | 91 | 195 | 2.6 | 11.3 | 0.00 | 0.04 | 0.04 | 63 | 1012.7 |
| 20260903204519 | 91 | 140 | 2.6 | 11.3 | 0.00 | 0.04 | 0.04 | 63 | 1012.8 |
| 20260903204011 | 91 | 198 | 3.5 | 12.2 | 0.00 | 0.04 | 0.04 | 63 | 1012.9 |
| 20260903203515 | 91 | 139 | 5.2 | 12.2 | 0.00 | 0.04 | 0.04 | 63 | 1012.9 |
| 20260903203026 | 91 | 153 | 3.5 | 11.3 | 0.00 | 0.04 | 0.04 | 63 | 1013.0 |
| 20260903202512 | 91 | 170 | 4.3 | 11.3 | 0.00 | 0.04 | 0.04 | 62 | 1013.2 |
| 20260903202014 | 91 | 185 | 3.5 | 11.3 | 0.00 | 0.04 | 0.04 | 63 | 1013.2 |
| 20260903201531 | 91 | 175 | 0.9 | 10.4 | 0.00 | 0.04 | 0.04 | 64 | 1013.2 |
| 20260903201015 | 91 | 200 | 2.6 | 10.4 | 0.00 | 0.04 | 0.04 | 63 | 1013.3 |
| 20260903200516 | 91 | 173 | 4.3 | 13.0 | 0.00 | 0.04 | 0.04 | 64 | 1013.4 |
| 20260903200033 | 90 | 134 | 5.2 | 13.0 | 0.00 | 0.04 | 0.04 | 64 | 1013.4 |
| 20260903195505 | 90 | 127 | 5.2 | 10.4 | 0.00 | 0.04 | 0.04 | 64 | 1013.3 |
| 20260903195006 | 90 | 153 | 2.6 | 11.3 | 0.00 | 0.04 | 0.04 | 66 | 1013.3 |
| 20260903194533 | 89 | 179 | 2.6 | 11.3 | 0.00 | 0.04 | 0.04 | 66 | 1013.4 |
| 20260903194009 | 89 | 120 | 2.6 | 12.2 | 0.00 | 0.04 | 0.04 | 66 | 1013.4 |
| 20260903193509 | 89 | 146 | 5.2 | 12.2 | 0.00 | 0.04 | 0.04 | 66 | 1013.4 |
| 20260903193026 | 89 | 161 | 3.5 | 12.2 | 0.00 | 0.04 | 0.04 | 66 | 1013.4 |
| 20260903192515 | 89 | 146 | 4.3 | 13.9 | 0.00 | 0.04 | 0.04 | 67 | 1013.5 |
| 20260903192011 | 89 | 213 | 6.1 | 13.9 | 0.00 | 0.04 | 0.04 | 67 | 1013.6 |
| 20260903191530 | 89 | 225 | 4.3 | 13.0 | 0.00 | 0.04 | 0.04 | 68 | 1013.7 |
| 20260903191012 | 88 | 151 | 7.0 | 13.9 | 0.00 | 0.04 | 0.04 | 69 | 1013.8 |
| 20260903190516 | 87 | 95 | 3.5 | 13.9 | 0.00 | 0.04 | 0.04 | 70 | 1013.9 |
| 20260903190031 | 87 | 150 | 4.3 | 12.2 | 0.00 | 0.04 | 0.04 | 70 | 1014.0 |
| 20260903185515 | 87 | 186 | 1.7 | 13.0 | 0.00 | 0.04 | 0.04 | 71 | 1014.1 |
| 20260903185015 | 86 | 164 | 2.6 | 13.0 | 0.00 | 0.04 | 0.04 | 72 | 1014.2 |
| 20260903184514 | 86 | 147 | 3.5 | 10.4 | 0.00 | 0.04 | 0.04 | 72 | 1014.3 |
| 20260903184006 | 86 | 169 | 3.5 | 10.4 | 0.00 | 0.04 | 0.04 | 72 | 1014.4 |
| 20260903183507 | 86 | 160 | 4.3 | 10.4 | 0.00 | 0.04 | 0.04 | 73 | 1014.4 |
| 20260903183031 | 85 | 164 | 4.3 | 8.7 | 0.00 | 0.04 | 0.04 | 75 | 1014.4 |
| 20260903182512 | 85 | 155 | 3.5 | 10.4 | 0.00 | 0.04 | 0.04 | 75 | 1014.4 |
| 20260903182009 | 84 | 165 | 4.3 | 12.2 | 0.00 | 0.04 | 0.04 | 76 | 1014.5 |
| 20260903181528 | 84 | 178 | 5.2 | 13.9 | 0.00 | 0.04 | 0.04 | 76 | 1014.5 |
| 20260903181009 | 84 | 147 | 4.3 | 14.8 | 0.00 | 0.04 | 0.04 | 76 | 1014.6 |
| 20260903180514 | 84 | 143 | 4.3 | 14.8 | 0.00 | 0.04 | 0.04 | 76 | 1014.7 |
| 20260903180035 | 84 | 200 | 5.2 | 12.2 | 0.00 | 0.04 | 0.04 | 76 | 1014.7 |
| 20260903175515 | 84 | 165 | 3.5 | 12.2 | 0.00 | 0.04 | 0.04 | 77 | 1014.7 |
| 20260903175015 | 83 | 147 | 4.3 | 12.2 | 0.00 | 0.04 | 0.04 | 78 | 1014.8 |
| 20260903174531 | 83 | 175 | 4.3 | 12.2 | 0.00 | 0.04 | 0.04 | 79 | 1014.8 |
| 20260903174016 | 82 | 172 | 2.6 | 9.6 | 0.00 | 0.04 | 0.04 | 81 | 1014.8 |
| 20260903173514 | 82 | 177 | 3.5 | 10.4 | 0.00 | 0.04 | 0.04 | 81 | 1014.9 |
| 20260903173016 | 82 | 169 | 5.2 | 13.0 | 0.00 | 0.04 | 0.04 | 82 | 1014.9 |
| 20260903172508 | 82 | 136 | 7.0 | 13.0 | 0.00 | 0.04 | 0.04 | 83 | 1015.0 |
| 20260903172008 | 81 | 144 | 2.6 | 11.3 | 0.00 | 0.04 | 0.04 | 83 | 1014.9 |
| 20260903171527 | 81 | 138 | 2.6 | 10.4 | 0.00 | 0.04 | 0.04 | 84 | 1015.0 |
| 20260903171010 | 81 | 202 | 2.6 | 9.6 | 0.00 | 0.04 | 0.04 | 84 | 1015.1 |
| 20260903170513 | 81 | 166 | 4.3 | 9.6 | 0.00 | 0.04 | 0.04 | 85 | 1015.1 |
| 20260903170026 | 81 | 187 | 4.3 | 13.9 | 0.00 | 0.04 | 0.04 | 85 | 1015.1 |
| 20260903165514 | 81 | 114 | 2.6 | 13.9 | 0.00 | 0.04 | 0.04 | 85 | 1015.1 |
| 20260903165015 | 80 | 142 | 4.3 | 9.6 | 0.00 | 0.04 | 0.04 | 86 | 1015.0 |
| 20260903164530 | 80 | 96 | 1.7 | 9.6 | 0.00 | 0.04 | 0.04 | 86 | 1015.0 |
| 20260903164016 | 80 | 145 | 3.5 | 10.4 | 0.00 | 0.04 | 0.04 | 86 | 1015.0 |
| 20260903163514 | 80 | 162 | 3.5 | 10.4 | 0.00 | 0.04 | 0.04 | 87 | 1015.0 |
| 20260903163031 | 80 | 129 | 3.5 | 9.6 | 0.00 | 0.04 | 0.04 | 87 | 1015.0 |
| 20260903162514 | 80 | 135 | 4.3 | 8.7 | 0.00 | 0.04 | 0.04 | 87 | 1014.9 |
| 20260903162016 | 80 | 149 | 2.6 | 9.6 | 0.00 | 0.04 | 0.04 | 88 | 1014.9 |
| 20260903161524 | 80 | 148 | 1.7 | 9.6 | 0.00 | 0.04 | 0.04 | 88 | 1014.8 |
| 20260903161010 | 79 | 132 | 3.5 | 9.6 | 0.00 | 0.04 | 0.04 | 88 | 1014.8 |
| 20260903160510 | 79 | 122 | 3.5 | 10.4 | 0.00 | 0.04 | 0.04 | 89 | 1014.8 |
| 20260903160033 | 79 | 146 | 2.6 | 10.4 | 0.00 | 0.04 | 0.04 | 89 | 1014.8 |
| 20260903155510 | 79 | 157 | 2.6 | 9.6 | 0.00 | 0.04 | 0.04 | 90 | 1014.8 |
| 20260903155021 | 79 | 144 | 2.6 | 7.8 | 0.00 | 0.04 | 0.04 | 91 | 1014.7 |
| 20260903154530 | 79 | 159 | 0.9 | 12.2 | 0.00 | 0.04 | 0.04 | 91 | 1014.7 |
| 20260903154016 | 79 | 146 | 4.3 | 12.2 | 0.00 | 0.04 | 0.04 | 91 | 1014.7 |
| 20260903153515 | 79 | 121 | 3.5 | 12.2 | 0.00 | 0.04 | 0.04 | 91 | 1014.6 |
| 20260903153030 | 79 | 151 | 2.6 | 12.2 | 0.00 | 0.04 | 0.04 | 91 | 1014.6 |
| 20260903152514 | 79 | 109 | 1.7 | 10.4 | 0.00 | 0.04 | 0.04 | 91 | 1014.5 |
| 20260903152021 | 79 | 138 | 1.7 | 7.8 | 0.00 | 0.04 | 0.04 | 91 | 1014.6 |
| 20260903151535 | 79 | 153 | 0.9 | 8.7 | 0.00 | 0.04 | 0.04 | 91 | 1014.6 |
| 20260903151015 | 79 | 163 | 3.5 | 8.7 | 0.00 | 0.04 | 0.04 | 91 | 1014.6 |
| 20260903150514 | 79 | 168 | 0.0 | 9.6 | 0.00 | 0.04 | 0.04 | 91 | 1014.6 |
| 20260903150021 | 79 | 165 | 4.3 | 9.6 | 0.00 | 0.04 | 0.04 | 91 | 1014.6 |
| 20260903145508 | 79 | 166 | 3.5 | 9.6 | 0.00 | 0.04 | 0.04 | 91 | 1014.6 |
| 20260903145010 | 79 | 166 | 0.9 | 8.7 | 0.00 | 0.04 | 0.04 | 92 | 1014.6 |
| 20260903144527 | 79 | 200 | 2.6 | 8.7 | 0.00 | 0.04 | 0.04 | 92 | 1014.6 |
| 20260903144014 | 79 | 156 | 1.7 | 7.0 | 0.00 | 0.04 | 0.04 | 93 | 1014.6 |
| 20260903143513 | 79 | 166 | 0.9 | 7.0 | 0.00 | 0.04 | 0.04 | 93 | 1014.7 |
| 20260903143036 | 79 | 148 | 0.9 | 7.0 | 0.00 | 0.04 | 0.04 | 93 | 1014.7 |
| 20260903142516 | 79 | 152 | 0.9 | 7.8 | 0.00 | 0.04 | 0.04 | 93 | 1014.6 |
| 20260903142021 | 78 | 147 | 0.9 | 7.8 | 0.00 | 0.04 | 0.04 | 93 | 1014.7 |
| 20260903141528 | 78 | 150 | 3.5 | 7.8 | 0.00 | 0.04 | 0.04 | 93 | 1014.8 |
| 20260903140506 | 78 | 166 | 0.9 | 7.8 | 0.00 | 0.04 | 0.04 | 94 | 1014.9 |
| 20260903140018 | 78 | 167 | 2.6 | 7.8 | 0.00 | 0.04 | 0.04 | 94 | 1014.9 |
| 20260903135508 | 78 | 172 | 1.7 | 12.2 | 0.00 | 0.04 | 0.04 | 94 | 1014.9 |
| 20260903135010 | 78 | 185 | 2.6 | 12.2 | 0.00 | 0.04 | 0.04 | 94 | 1014.8 |
| 20260903134527 | 78 | 163 | 0.0 | 7.0 | 0.00 | 0.04 | 0.04 | 94 | 1014.7 |
| 20260903134010 | 78 | 165 | 2.6 | 7.8 | 0.00 | 0.04 | 0.04 | 94 | 1014.6 |
| 20260903133510 | 78 | 155 | 2.6 | 10.4 | 0.00 | 0.04 | 0.04 | 94 | 1014.7 |
| 20260903133004 | 78 | 161 | 2.6 | 10.4 | 0.00 | 0.04 | 0.04 | 94 | 1014.7 |
| 20260903132504 | 78 | 157 | 2.6 | 8.7 | 0.00 | 0.04 | 0.04 | 94 | 1014.6 |
| 20260903132003 | 78 | 155 | 1.7 | 7.8 | 0.01 | 0.04 | 0.04 | 94 | 1014.6 |
| 20260903131515 | 77 | 178 | 0.9 | 8.7 | 0.01 | 0.04 | 0.04 | 94 | 1014.6 |
| 20260903131004 | 77 | 193 | 2.6 | 8.7 | 0.01 | 0.04 | 0.04 | 94 | 1014.6 |
| 20260903130503 | 77 | 143 | 2.6 | 8.7 | 0.02 | 0.04 | 0.04 | 94 | 1014.5 |
| 20260903130013 | 77 | 178 | 0.9 | 6.1 | 0.03 | 0.04 | 0.04 | 94 | 1014.5 |
| 20260903125504 | 77 | 180 | 0.9 | 5.2 | 0.04 | 0.04 | 0.04 | 94 | 1014.4 |
| 20260903125006 | 77 | 209 | 0.0 | 6.1 | 0.04 | 0.04 | 0.04 | 94 | 1014.3 |
| 20260903124533 | 77 | 182 | 1.7 | 6.1 | 0.04 | 0.04 | 0.04 | 94 | 1014.2 |
| 20260903124008 | 77 | 194 | 0.0 | 8.7 | 0.04 | 0.04 | 0.04 | 94 | 1014.2 |
| 20260903123511 | 77 | 202 | 3.5 | 8.7 | 0.04 | 0.04 | 0.04 | 93 | 1014.2 |
| 20260903123024 | 77 | 133 | 1.7 | 7.0 | 0.04 | 0.04 | 0.04 | 93 | 1014.2 |
| 20260903122512 | 77 | 160 | 0.9 | 7.8 | 0.04 | 0.04 | 0.04 | 93 | 1014.1 |
| 20260903122012 | 77 | 165 | 0.9 | 9.6 | 0.03 | 0.03 | 0.03 | 93 | 1014.0 |
| 20260903121505 | 77 | 160 | 4.3 | 9.6 | 0.03 | 0.03 | 0.03 | 92 | 1014.0 |
| 20260903121003 | 77 | 149 | 1.7 | 7.8 | 0.03 | 0.03 | 0.03 | 92 | 1014.2 |
| 20260903120505 | 77 | 149 | 1.7 | 9.6 | 0.02 | 0.02 | 0.02 | 92 | 1014.2 |
| 20260903120010 | 77 | 156 | 3.5 | 9.6 | 0.01 | 0.01 | 0.01 | 92 | 1014.1 |
| 20260903115504 | 77 | 163 | 2.6 | 8.7 | 0.00 | 0.00 | 0.00 | 92 | 1014.1 |
| 20260903115004 | 77 | 146 | 3.5 | 8.7 | 0.00 | 0.00 | 0.00 | 92 | 1014.1 |
| 20260903114519 | 77 | 134 | 0.9 | 9.6 | 0.00 | 0.00 | 0.00 | 92 | 1014.0 |
| 20260903114006 | 77 | 167 | 1.7 | 9.6 | 0.00 | 0.00 | 0.00 | 92 | 1014.0 |
| 20260903113510 | 77 | 135 | 1.7 | 7.8 | 0.00 | 0.00 | 0.00 | 92 | 1013.8 |
| 20260903113023 | 77 | 148 | 0.0 | 4.3 | 0.00 | 0.00 | 0.00 | 92 | 1013.8 |
| 20260903112512 | 77 | 145 | 0.0 | 4.3 | 0.00 | 0.00 | 0.00 | 92 | 1013.9 |
| 20260903112012 | 77 | 182 | 0.0 | 2.6 | 0.00 | 0.00 | 0.00 | 92 | 1013.9 |
| 20260903111525 | 77 | 183 | 0.0 | 2.6 | 0.00 | 0.00 | 0.00 | 92 | 1014.0 |
| 20260903111013 | 77 | 182 | 0.0 | 6.1 | 0.00 | 0.00 | 0.00 | 92 | 1013.8 |
| 20260903110517 | 77 | 168 | 0.9 | 6.1 | 0.00 | 0.00 | 0.00 | 92 | 1013.8 |
| 20260903110008 | 77 | 196 | 0.0 | 6.1 | 0.00 | 0.00 | 0.00 | 92 | 1013.9 |
| 20260903105504 | 77 | 142 | 0.0 | 6.1 | 0.00 | 0.00 | 0.00 | 92 | 1014.0 |
| 20260903105004 | 77 | 163 | 1.7 | 6.1 | 0.00 | 0.00 | 0.00 | 92 | 1013.8 |
| 20260903104511 | 77 | 157 | 0.0 | 11.3 | 0.00 | 0.00 | 0.00 | 92 | 1013.7 |
| 20260903104004 | 77 | 136 | 1.7 | 11.3 | 0.00 | 0.00 | 0.00 | 92 | 1013.7 |
| 20260903103508 | 77 | 146 | 1.7 | 9.6 | 0.00 | 0.00 | 0.00 | 92 | 1013.6 |
| 20260903103016 | 77 | 146 | 2.6 | 9.6 | 0.00 | 0.00 | 0.00 | 92 | 1013.6 |
| 20260903102509 | 77 | 159 | 0.9 | 7.0 | 0.00 | 0.00 | 0.00 | 92 | 1013.6 |
| 20260903102009 | 76 | 168 | 0.9 | 7.0 | 0.00 | 0.00 | 0.00 | 92 | 1013.6 |
| 20260903101530 | 76 | 157 | 0.0 | 6.1 | 0.00 | 0.00 | 0.00 | 92 | 1013.7 |
| 20260903101011 | 76 | 192 | 0.0 | 5.2 | 0.00 | 0.00 | 0.00 | 92 | 1013.6 |
| 20260903100512 | 76 | 157 | 0.9 | 5.2 | 0.00 | 0.00 | 0.00 | 92 | 1013.6 |
| 20260903100032 | 76 | 148 | 0.0 | 5.2 | 0.00 | 0.00 | 0.00 | 93 | 1013.6 |
| 20260903095514 | 76 | 173 | 0.0 | 4.3 | 0.00 | 0.00 | 0.00 | 93 | 1013.6 |
| 20260903095021 | 76 | 178 | 0.0 | 4.3 | 0.00 | 0.00 | 0.00 | 93 | 1013.7 |
| 20260903094510 | 76 | 169 | 0.0 | 3.5 | 0.00 | 0.00 | 0.00 | 93 | 1013.7 |
| 20260903094006 | 76 | 165 | 0.0 | 4.3 | 0.00 | 0.00 | 0.00 | 93 | 1013.7 |
| 20260903093504 | 76 | 165 | 0.0 | 6.1 | 0.00 | 0.00 | 0.00 | 93 | 1013.7 |
| 20260903093013 | 76 | 164 | 0.9 | 7.0 | 0.00 | 0.00 | 0.00 | 92 | 1013.6 |
| 20260903092507 | 76 | 162 | 0.0 | 7.0 | 0.00 | 0.00 | 0.00 | 92 | 1013.7 |
| 20260903092009 | 76 | 137 | 0.0 | 7.0 | 0.00 | 0.00 | 0.00 | 92 | 1013.8 |
| 20260903091521 | 76 | 182 | 0.0 | 5.2 | 0.00 | 0.00 | 0.00 | 92 | 1013.8 |
| 20260903091009 | 76 | 200 | 0.0 | 3.5 | 0.00 | 0.00 | 0.00 | 93 | 1013.7 |
| 20260903090510 | 76 | 203 | 0.0 | 3.5 | 0.00 | 0.00 | 0.00 | 93 | 1013.7 |
| 20260903090028 | 76 | 198 | 0.0 | 3.5 | 0.00 | 0.00 | 0.00 | 93 | 1013.5 |
| 20260903085512 | 76 | 199 | 0.0 | 3.5 | 0.00 | 0.00 | 0.00 | 93 | 1013.5 |
| 20260903085015 | 77 | 217 | 0.0 | 6.1 | 0.00 | 0.00 | 0.00 | 93 | 1013.4 |
| 20260903084530 | 77 | 220 | 0.0 | 7.0 | 0.00 | 0.00 | 0.00 | 93 | 1013.4 |
| 20260903084017 | 77 | 161 | 0.9 | 7.0 | 0.00 | 0.00 | 0.00 | 93 | 1013.3 |
| 20260903083504 | 77 | 188 | 0.0 | 7.0 | 0.00 | 0.00 | 0.00 | 94 | 1013.3 |
| 20260903083012 | 77 | 169 | 0.0 | 7.0 | 0.00 | 0.00 | 0.00 | 94 | 1013.2 |
| 20260903082503 | 76 | 162 | 0.9 | 9.6 | 0.00 | 0.00 | 0.00 | 94 | 1013.2 |
| 20260903082007 | 76 | 163 | 0.9 | 9.6 | 0.00 | 0.00 | 0.00 | 93 | 1013.2 |